Regional Weather Roundup
Issued by NWS

Home | Current Version | Previous Version | Graphics & Text | Print | Product List | Glossary On
Versions: 1 2 3 4 5 6 7 8 9 10 11 12 13 14 15 16 17 18 19 20 21 22 23 24 25 26 27 28
000
ASUS45 KSLC 252010
RWRUT

UTAH REGIONAL WEATHER ROUNDUP
NATIONAL WEATHER SERVICE SALT LAKE CITY UT
200 PM MDT WED APR 25 2018

UTZ001>011-023>025-252100-

NORTHERN UTAH

CITY           SKY/WX    TMP DP  RH WIND       PRES   REMARKS
BRIGHAM CITY   SUNNY     66  15  14 SW8       30.21F
HILL AFB       SUNNY     65  25  22 SW5       30.20F
LOGAN          SUNNY     62  29  28 VRB3      30.19F
OGDEN          SUNNY     65  19  17 VRB5      30.19F
SALT LAKE CITY MOSUNNY   69  18  14 SW5       30.17F
TOOELE VALLEY  SUNNY     68  34  28 N13       30.18F
WENDOVER       SUNNY     65  25  22 VRB6      30.19F
HEBER CITY       N/A     68  19  15 SW15      30.18F
WEST JORDAN    SUNNY     67  31  26 S6        30.20F

$$

UTZ011>015-024>027-252100-

CENTRAL/NORTHEAST UTAH

CITY           SKY/WX    TMP DP  RH WIND       PRES   REMARKS
PROVO AIRPORT  MOSUNNY   67  26  21 SW6       30.20F
MOAB/CANYONLAN SUNNY     66  15  14 MISG      30.20F
DELTA          SUNNY     68  18  14 SW6       30.20F
PRICE          SUNNY     62  12  14 VRB3      30.25F
RICHFIELD      SUNNY     68  18  14 CALM      30.19F
ROOSEVELT      SUNNY     61  21  21 S5        30.27F
VERNAL         SUNNY     59  20  22 S8        30.25F

$$

UTZ013>016-019>022-027-252100-

SOUTHERN UTAH

CITY           SKY/WX    TMP DP  RH WIND       PRES   REMARKS
BRYCE CANYON   SUNNY     64  17  16 E5        30.30F
CEDAR CITY     SUNNY     73  26  17 NW5       30.20F
MILFORD        SUNNY     69  23  17 VRB3      30.19F
ST GEORGE      CLEAR     82  24  12 VRB3      30.08F
HANKSVILLE     SUNNY     68  18  14 NW3       30.24F
KANAB          SUNNY     77  18  10 W2        30.21F
BLANDING         N/A     70   4   7 SE9       30.27F

$$

REGIONAL REPORTS     COLORADO/ARIZONA

CITY           SKY/WX    TMP DP  RH WIND       PRES   REMARKS
CRAIG, CO      SUNNY     58  28  32 N6        30.25F
GRAND JUNCTION SUNNY     65  16  15 CALM      30.20F
RIFLE, CO      SUNNY     62   7  11 CALM      30.20F
MONTROSE, CO   SUNNY     61  18  18 VRB5      30.23F
CORTEZ, CO     SUNNY     70   0   6 MISG      30.19F
COLORADO CITY    N/A     79  23  12 E7        30.20F
PAGE, AZ       SUNNY     72  17  12 VRB3      30.18F
GRAND CANYON   SUNNY     71  16  12 N6        30.26F
KINGMAN, AZ    SUNNY     90  24   9 N16G24    30.07F
FLAGSTAFF, AZ  SUNNY     67  20  16 SE12G20   30.27F

$$

REGIONAL REPORTS    NEVADA/IDAHO/WYOMING

CITY           SKY/WX    TMP DP  RH WIND       PRES   REMARKS
LAS VEGAS, NV  MOSUNNY   87  23   9 NE8       30.02F
ELY, NY        SUNNY     71  20  14 VRB5G20   30.21F
ELKO, NV       SUNNY     70  26  19 SW7       30.19F
POCATELLO, ID  SUNNY     66  30  26 W12       30.17F
BURLEY, ID     SUNNY     66  27  23 W8        30.15F
FORT BRIDGER,    N/A     58  17  19 SW3       30.27F
EVANSTON, WY   SUNNY     61  17  18 SW16G23   30.24F
ROCK SPRINGS,  SUNNY     60  12  15 W9        30.23F
KEMMERER, WY   SUNNY     59  12  15 SW17G23   30.24F

$$




USA.gov is the U.S. government's official web portal to all federal, state and local government web resources and services.